Location: Zihuatanejo
(17.6330°N, 101.5500°W)
Time: 00:32:49
(UTC-05:00)

Envisat - Visible Passes

Search period start: 23 March 2019 00:00
Search period end: 02 April 2019 00:00
Orbit: 764 x 766 km, 98.2° (Epoch: 22 March)

Date Brightness Start Highest point End Pass type
(mag) Time Alt. Az. Time Alt. Az. Time Alt. Az.
23 Mar 4.7 21:15:49 10° SSW 21:20:21 33° W 21:24:54 10° NW visible
24 Mar 3.0 20:38:34 10° SSE 20:43:38 88° ENE 20:48:43 10° N visible
25 Mar 5.8 21:42:46 10° SW 21:45:55 17° W 21:49:04 10° WNW visible
26 Mar 4.1 21:04:19 10° S 21:09:08 45° W 21:13:58 10° NNW visible
27 Mar 3.0 20:27:26 10° SSE 20:32:26 66° ENE 20:37:28 10° N visible
28 Mar 5.4 21:30:47 10° SSW 21:34:41 22° W 21:38:35 10° NW visible
29 Mar 3.5 20:52:55 10° S 20:57:55 61° WSW 21:02:56 10° NNW visible
30 Mar 3.2 20:16:25 10° SSE 20:21:16 48° ENE 20:26:08 10° N visible
30 Mar 6.1 21:59:22 10° WSW 22:00:16 10° W 22:01:11 10° W visible
31 Mar 4.9 21:19:03 10° SSW 21:23:27 30° W 21:27:51 10° NW visible
01 Apr 3.1 20:41:39 10° S 20:46:43 83° WSW 20:51:48 10° NNW visible
